NOAA 17 DEB, 48718

Orbit data source: Space-Track

NOAA 17 DEB, 48718 is space debris in SSO originally from a launch on Mon, 24 Jun 2002 UTC launched from the Air Force Western Test Range (AFWTR). Debris objects in space refer to the collection of defunct objects orbiting the Earth. Examples of debris include non-operational satellites, rocket bodies, and fragments generated from explosions, collisions, or faulty payload assembly.

Loading next visibility...
Identifier
48718, 2002-032BB
Orbit
SSO
Country
Flag of USUS
Related business
Manufacturer
Unknown
Mission
Spacecraft
Bus & Motor
Unknown
Mass
Unknown
Launch date (UTC)
2002-06-24 (23 years ago)
Launch vehicle
Unknown
Launch site
Air Force Western Test Range (AFWTR)
Object type
Payload
Rocket body
Debris
Shape & HBR
Unknown shape, 0.1 m
Radar Cross Section
Small (<0.1 m²)

Expand to show TLE details & history
Last TLE update: 2 days ago

TLE from 2 days ago
0 NOAA 17 DEB
1 48718U 02032BB  25347.92794152  .00012468  00000-0  26262-2 0  9996
2 48718  98.9750  35.8732 0015865 359.1439   0.9728 14.59550354249131
Epoch: 2025-12-13T22:16Z
TLE epoch observation values (Epoch: 2025-12-13T22:16:14.147Z)
Latitude
-0.00007°
Longitude
-21.03392°
Altitude
686.364 km
Speed
7.519 km/s
True Right ascension
02h 23m 29s
True Declination
0° 00' 00"
Sunlit
Object was in full shadow at epoch
Visualization orbit readout
Latitude
Unknown
Longitude
Unknown
Altitude
Unknown
Speed
Unknown
Apparent Right ascension
Unknown
Apparent Declination
Unknown
Sunlit
N/A
Visualization observer readout
Local Sidereal Time
17:03:50
Azimuth
Unknown
Elevation
Unknown
Doppler factor
Unknown
Orbital elements
Apogee altitude
702.962 km
Perigee altitude
680.529 km
Semi-major axis
7,069.882 km
Eccentricity
0.00159
Inclination
98.975°
RAAN
35.8732°
Arg. of periapsis
359.1439°
True anomaly
0.97589°
Mean anomaly
0.9728°
Eccentric anomaly
0.97435°
Mean motion
3.65111 °/min
Orbital period
98.6 mins
BSTAR
0.0026262
Loading maneuver chart data...
Computing Atmospheric mass density...
Loading historical data...
Loading historical data...
Loading historical data...
Loading historical data...
Loading historical data...
Loading historical data...
Loading historical data...

Documentation

Showing up to 5 results
|